Weather History for Jaipur, India

Change the Weather History Date:

Friday, May 3, 2013

  Actual Average Record
Temperature  
Mean Temperature 87 °F -  
Max Temperature 102 °F - - ()
Min Temperature 72 °F - - ()
Cooling Degree Days 22    
Growing Degree Days 37 (Base 50)    
Moisture  
Dew Point 31 °F    
Average Humidity 13    
Maximum Humidity 28    
Minimum Humidity 4    
Precipitation  
Precipitation 0.00 in - - ()
Sea Level Pressure  
Sea Level Pressure 29.59 in    
Wind  
Wind Speed 3 mph ()    
Max Wind Speed 12 mph    
Max Gust Speed -    
Visibility 2.5 miles    
Events      
T = Trace of Precipitation, MM = Missing Value Source: Averaged Metar Reports

Daily Weather History Graph

Daily Weather History Graph

Search for Another Location

Airport:

Trip Planner

Search our weather history database for the weather conditions in past years. The results will help you decide how hot, cold, wet, or windy it might be!

Date:

Astronomy

May. 03, 2013 Rise Set
Actual Time 5:47 AM IST 7:00 PM IST
Civil Twilight 5:22 AM IST 7:25 PM IST
Nautical Twilight 4:53 AM IST 7:54 PM IST
Astronomical Twilight 4:23 AM IST 8:24 PM IST
Moon 1:17 AM IST (5/3) 1:00 PM IST (5/3)
Length of Visible Light 14h 02m
Length of Day
13h 13m
Last Quarter, 41% of the Moon is Illuminated
May 3
Last Quarter
May 10
New
May 18
First Quarter
May 25
Full
Jun 1
Last Quarter

Hourly Weather History & Observations

Time (IST) Temp. Dew Point Humidity Pressure Visibility Wind Dir Wind Speed Gust Speed Precip Events Conditions
12:00 AM 86.0 °F 28.4 °F 12% 29.65 in 2.5 mi Variable 4.6 mph - N/A   Haze
1:00 AM 84.2 °F 26.6 °F 12% 29.62 in 2.5 mi Variable 4.6 mph - N/A   Haze
2:00 AM 84.2 °F 24.8 °F 11% 29.62 in 2.5 mi NNW 4.6 mph - N/A   Haze
2:30 AM 84 °F 28 °F 6% 29.56 in 2 mi NW 4.6 mph - -   Haze
3:00 AM 82.4 °F 26.6 °F 13% 29.62 in 2.5 mi Variable 4.6 mph - N/A   Haze
4:00 AM 77.0 °F 28.4 °F 17% 29.59 in 2.5 mi Calm Calm - N/A   Haze
5:00 AM 75.2 °F 32.0 °F 21% 29.59 in 2.5 mi Calm Calm - N/A   Haze
5:30 AM 74 °F 36 °F 15% 29.55 in 2 mi Calm Calm - -   Haze
5:30 AM 73.4 °F 33.8 °F 23% 29.59 in 2.5 mi Calm Calm - N/A   Haze
6:00 AM 75.2 °F 32.0 °F 21% 29.62 in 2.5 mi Calm Calm - N/A   Haze
7:00 AM 78.8 °F 42.8 °F 28% 29.62 in 2.5 mi Calm Calm - N/A   Haze
8:00 AM 87.8 °F 39.2 °F 18% 29.65 in 2.5 mi Calm Calm - N/A   Haze
8:30 AM 91 °F 43 °F 11% 29.55 in 2 mi SSE 3.5 mph - -   Haze
9:00 AM 87.8 °F 37.4 °F 17% 29.65 in 2.5 mi SSE 5.8 mph - N/A   Haze
10:00 AM 91.4 °F 32.0 °F 12% 29.68 in 2.5 mi South 4.6 mph - N/A   Haze
11:30 AM 97 °F 35 °F 5% 29.55 in 2 mi South 2.3 mph - -   Haze
12:00 PM 96.8 °F 24.8 °F 8% 29.65 in 3.7 mi Variable 4.6 mph - N/A   Unknown
1:00 PM 100.4 °F 46.4 °F 16% 29.62 in 3.7 mi NW 11.5 mph - N/A   Partly Cloudy
2:00 PM 100.4 °F 19.4 °F 5% 29.59 in 3.7 mi West 8.1 mph - N/A   Partly Cloudy
3:00 PM 102.2 °F 17.6 °F 5% 29.59 in 3.7 mi WNW 10.4 mph - N/A   Partly Cloudy
4:00 PM 102.2 °F 15.8 °F 4% 29.56 in 3.7 mi West 10.4 mph - N/A   Partly Cloudy
5:00 PM 100.4 °F 17.6 °F 5% 29.56 in 3.7 mi NW 5.8 mph - N/A   Unknown
5:30 PM 101 °F 28 °F 4% 29.45 in 2 mi WNW 9.2 mph - -  
7:00 PM 96.8 °F 21.2 °F 7% 29.56 in 3.1 mi Variable 3.5 mph - N/A   Haze
7:30 PM 95.0 °F 21.2 °F 7% 29.59 in 2.5 mi Variable 3.5 mph - N/A   Haze
8:00 PM 93.2 °F 28.4 °F 10% 29.59 in 2.2 mi Variable 3.5 mph - N/A   Haze
8:30 PM 90 °F 42 °F 11% 29.51 in 1 mi 3.5 mph - -   Haze
9:30 PM 89.6 °F 32.0 °F 13% 29.62 in 1.9 mi North 3.5 mph - N/A   Haze
10:00 PM 84.2 °F 33.8 °F 16% 29.62 in 1.9 mi Calm Calm - N/A   Haze
11:00 PM 84.2 °F 35.6 °F 18% 29.62 in 1.9 mi Calm Calm - N/A   Haze
11:30 PM 82 °F 51 °F 24% 29.54 in 1 mi Calm Calm - -   Haze
11:30 PM 80.6 °F 39.2 °F 23% 29.62 in 1.9 mi Calm Calm - N/A   Haze